Weather History for Glenwood, MN

Change the Weather History Date:

Sunday, October 9, 2011

  Actual Average Record
Temperature  
Mean Temperature 65 °F -  
Max Temperature 75 °F 58 °F 82 °F (1999)
Min Temperature 55 °F 37 °F 6 °F (1998)
Growing Degree Days 15 (Base 50)    
Moisture  
Dew Point 53 °F    
Average Humidity 74    
Maximum Humidity 88    
Minimum Humidity 47    
Precipitation  
Precipitation 0.07 in - - ()
Sea Level Pressure  
Sea Level Pressure 30.16 in    
Wind  
Wind Speed 8 mph (ENE)    
Max Wind Speed 17 mph    
Max Gust Speed 20 mph    
Visibility 10 miles    
Events Rain    
Averages and records for this station are not official NWS values.
T = Trace of Precipitation, MM = Missing Value Source: NWS Daily Summary

Daily Weather History Graph

Daily Weather History Graph

Search for Another Location

Airport:

Trip Planner

Search our weather history database for the weather conditions in past years. The results will help you decide how hot, cold, wet, or windy it might be!

Date:

Astronomy

Oct. 09, 2011 Rise Set
Actual Time 7:29 AM CDT 6:46 PM CDT
Civil Twilight 6:59 AM CDT 7:16 PM CDT
Nautical Twilight 6:25 AM CDT 7:50 PM CDT
Astronomical Twilight 5:50 AM CDT 8:25 PM CDT
Moon 5:27 PM CDT (10/9) 5:10 AM CDT (10/9)
Length of Visible Light 12h 16m
Length of Day
11h 17m
Waxing Gibbous, 95% of the Moon is Illuminated
Oct 9
Waxing Gibbous
Oct 11
Full
Oct 19
Last Quarter
Oct 26
New
Nov 2
First Quarter

Hourly Weather History & Observations

Time (CDT) Temp. Dew Point Humidity Pressure Visibility Wind Dir Wind Speed Gust Speed Precip Events Conditions
12:13 AM 59.0 °F 51.8 °F 77% 30.16 in 10.0 mi NNW 6.9 mph - N/A   Overcast
12:34 AM 59.0 °F 50.0 °F 72% 30.17 in 10.0 mi NNE 4.6 mph - N/A   Mostly Cloudy
12:54 AM 57.2 °F 51.8 °F 82% 30.17 in 10.0 mi North 4.6 mph - N/A   Overcast
1:13 AM 57.2 °F 50.0 °F 77% 30.17 in 10.0 mi NE 5.8 mph - N/A   Scattered Clouds
1:34 AM 57.2 °F 51.8 °F 82% 30.17 in 10.0 mi NNE 4.6 mph - N/A   Scattered Clouds
2:33 AM 57.2 °F 50.0 °F 77% 30.19 in 10.0 mi NNE 5.8 mph - N/A Rain Light Rain
2:54 AM 57.2 °F 50.0 °F 77% 30.19 in 10.0 mi NNE 5.8 mph - N/A Rain Light Rain
3:13 AM 57.2 °F 48.2 °F 72% 30.19 in 10.0 mi NNE 4.6 mph - N/A   Mostly Cloudy
3:33 AM 55.4 °F 50.0 °F 82% 30.19 in 10.0 mi NE 5.8 mph - N/A   Mostly Cloudy
3:53 AM 55.4 °F 50.0 °F 82% 30.19 in 10.0 mi NE 5.8 mph - N/A   Scattered Clouds
4:14 AM 55.4 °F 50.0 °F 82% 30.19 in 10.0 mi NE 4.6 mph - N/A   Scattered Clouds
4:33 AM 55.4 °F 50.0 °F 82% 30.19 in 10.0 mi NE 5.8 mph - N/A   Clear
4:54 AM 55.4 °F 50.0 °F 82% 30.19 in 10.0 mi NE 5.8 mph - N/A   Scattered Clouds
5:14 AM 55.4 °F 50.0 °F 82% 30.19 in 10.0 mi NE 4.6 mph - N/A   Scattered Clouds
5:34 AM 55.4 °F 50.0 °F 82% 30.20 in 10.0 mi ENE 6.9 mph - N/A   Scattered Clouds
5:53 AM 55.4 °F 51.8 °F 88% 30.19 in 10.0 mi NE 5.8 mph - N/A   Scattered Clouds
6:14 AM 55.4 °F 51.8 °F 88% 30.20 in 10.0 mi NE 4.6 mph - N/A   Mostly Cloudy
6:33 AM 55.4 °F 51.8 °F 88% 30.20 in 10.0 mi NE 6.9 mph - 0.01 in Rain Rain
6:54 AM 55.4 °F 51.8 °F 88% 30.21 in 10.0 mi NNE 5.8 mph - 0.01 in Rain Rain
7:13 AM 55.4 °F 51.8 °F 88% 30.21 in 10.0 mi NNE 6.9 mph - 0.01 in Rain Light Rain
7:33 AM 55.4 °F 51.8 °F 88% 30.22 in 10.0 mi NNE 8.1 mph - 0.02 in Rain Light Rain
7:53 AM 55.4 °F 51.8 °F 88% 30.22 in 10.0 mi NNE 8.1 mph - 0.04 in Rain Light Rain
7:55 AM 55.4 °F 51.8 °F 88% 30.22 in 10.0 mi NNE 8.1 mph - 0.04 in Rain Light Rain
8:13 AM 55.4 °F 51.8 °F 88% 30.21 in 10.0 mi NE 10.4 mph - 0.02 in Rain Rain
8:34 AM 55.4 °F 51.8 °F 88% 30.21 in 10.0 mi NNE 10.4 mph - 0.02 in   Light Drizzle
8:54 AM 55.4 °F 51.8 °F 88% 30.20 in 10.0 mi NE 12.7 mph - 0.02 in   Mostly Cloudy
8:55 AM 55.4 °F 51.8 °F 88% 30.20 in 10.0 mi NE 12.7 mph - 0.02 in   Mostly Cloudy
9:14 AM 55.4 °F 51.8 °F 88% 30.22 in 10.0 mi NE 10.4 mph - N/A   Overcast
9:34 AM 55.4 °F 51.8 °F 88% 30.21 in 10.0 mi NE 11.5 mph - N/A   Overcast
9:54 AM 57.2 °F 53.6 °F 88% 30.21 in 10.0 mi ENE 10.4 mph 17.3 mph N/A   Overcast
10:13 AM 57.2 °F 53.6 °F 88% 30.21 in 10.0 mi ENE 13.8 mph 17.3 mph N/A   Overcast
10:34 AM 59.0 °F 53.6 °F 82% 30.21 in 10.0 mi ENE 16.1 mph - N/A   Overcast
10:53 AM 59.0 °F 53.6 °F 82% 30.20 in 10.0 mi ENE 17.3 mph - N/A   Overcast
11:33 AM 62.6 °F 55.4 °F 77% 30.20 in 10.0 mi ENE 16.1 mph - N/A   Scattered Clouds
11:54 AM 62.6 °F 55.4 °F 77% 30.19 in 10.0 mi East 17.3 mph - N/A   Mostly Cloudy
12:13 PM 64.4 °F 57.2 °F 77% 30.19 in 10.0 mi East 12.7 mph - N/A   Mostly Cloudy
12:34 PM 64.4 °F 57.2 °F 77% 30.19 in 10.0 mi East 10.4 mph - N/A   Overcast
12:53 PM 64.4 °F 57.2 °F 77% 30.18 in 10.0 mi East 12.7 mph - N/A   Overcast
1:34 PM 68.0 °F 57.2 °F 68% 30.16 in 10.0 mi East 13.8 mph - N/A   Mostly Cloudy
1:53 PM 69.8 °F 59.0 °F 68% 30.15 in 10.0 mi East 12.7 mph 19.6 mph N/A   Scattered Clouds
2:13 PM 69.8 °F 59.0 °F 68% 30.14 in 10.0 mi East 11.5 mph 17.3 mph N/A   Scattered Clouds
2:34 PM 71.6 °F 59.0 °F 64% 30.13 in 10.0 mi East 11.5 mph - N/A   Scattered Clouds
2:53 PM 73.4 °F 59.0 °F 61% 30.12 in 10.0 mi East 13.8 mph 19.6 mph N/A   Clear
3:14 PM 73.4 °F 59.0 °F 61% 30.11 in 10.0 mi ESE 13.8 mph - N/A   Clear
3:33 PM 73.4 °F 57.2 °F 57% 30.11 in 10.0 mi ESE 11.5 mph - N/A   Scattered Clouds
3:53 PM 75.2 °F 55.4 °F 50% 30.10 in 10.0 mi SE 13.8 mph - N/A   Mostly Cloudy
4:13 PM 75.2 °F 55.4 °F 50% 30.10 in 10.0 mi ESE 12.7 mph - N/A   Mostly Cloudy
4:33 PM 75.2 °F 55.4 °F 50% 30.09 in 10.0 mi ESE 8.1 mph - N/A   Scattered Clouds
4:54 PM 75.2 °F 55.4 °F 50% 30.09 in 10.0 mi East 10.4 mph - N/A   Scattered Clouds
5:33 PM 75.2 °F 53.6 °F 47% 30.09 in 10.0 mi ESE 5.8 mph - N/A   Clear
5:53 PM 73.4 °F 51.8 °F 47% 30.08 in 10.0 mi SE 6.9 mph - N/A   Clear
6:13 PM 71.6 °F 51.8 °F 50% 30.08 in 10.0 mi ESE 6.9 mph - N/A   Clear
6:34 PM 69.8 °F 53.6 °F 56% 30.08 in 10.0 mi ESE 6.9 mph - N/A   Clear
7:14 PM 66.2 °F 51.8 °F 60% 30.08 in 10.0 mi ESE 6.9 mph - N/A   Clear
7:34 PM 66.2 °F 51.8 °F 60% 30.08 in 10.0 mi ESE 8.1 mph - N/A   Clear
7:53 PM 64.4 °F 51.8 °F 64% 30.08 in 10.0 mi ESE 6.9 mph - N/A   Clear
8:13 PM 64.4 °F 51.8 °F 64% 30.08 in 10.0 mi ESE 8.1 mph - N/A   Clear
8:34 PM 62.6 °F 51.8 °F 68% 30.07 in 10.0 mi ESE 6.9 mph - N/A   Scattered Clouds
8:53 PM 62.6 °F 51.8 °F 68% 30.07 in 10.0 mi ESE 8.1 mph - N/A   Scattered Clouds
9:14 PM 62.6 °F 51.8 °F 68% 30.07 in 10.0 mi ESE 9.2 mph - N/A   Clear
9:53 PM 64.4 °F 50.0 °F 59% 30.07 in 10.0 mi SE 11.5 mph - N/A   Clear
10:13 PM 64.4 °F 50.0 °F 59% 30.07 in 10.0 mi SE 11.5 mph - N/A   Clear
10:34 PM 64.4 °F 48.2 °F 56% 30.07 in 10.0 mi SE 10.4 mph - N/A   Clear
10:53 PM 62.6 °F 48.2 °F 59% 30.07 in 10.0 mi SE 9.2 mph - N/A   Clear
11:14 PM 62.6 °F 48.2 °F 59% 30.07 in 10.0 mi SE 8.1 mph - N/A   Clear
11:33 PM 62.6 °F 48.2 °F 59% 30.07 in 10.0 mi SE 8.1 mph - N/A   Clear